EO 1

导读

EO-1(地球观测-1)是美国于2000年11月21日发射的新型地球观测技术试验卫星,隶属于NASA新千年计划,旨在验证下一代对地观测卫星的先进技术。该卫星配备高光谱成像仪等创新载荷,能获取超高光谱分辨率的地表观测数据,在土地覆盖分类、矿产资源勘探、环境监测等领域展现出独特应用价值,为后续地球观测卫星的发展提供了关键技术验证与数据积累,成为遥感卫星技术发展历程中的重要试验平台。

基本信息
目录编号:
26619
目录名称:
EO 1
国际标识:
2000-075A
轨道中心:
EARTH
卫星名称:
EO 1
卫星全名:
--
卫星状态:
在轨 (已飞行9339 天)
发射日期:
2000-11-21 UTC
国别 :
美国 (US)
星等 :
--
轨道信息
数据来源 国际轨道数据 AOE轨道数据
星历时间 2026-06-17T19:18:53+0800
10小时前
查看轨道信息
2026-06-17T07:00:00+0800
23小时前
查看轨道信息
半长轴 7041.765km 7041.771km
偏心率 0.0010152 0.0010159
轨道倾角 98.117° 98.118°
近地点辐角 121.982° 122.297°
升交点赤经 125.327° 124.817°
平近点角 238.237° 45.660°
近地点 656.479km 656.48km
远地点 670.777km 670.788km
周期 98.013分钟 98.013分钟
每日圈数 14.691986 14.691968
详细信息
使用方式:
暂无
2D轨道图
3D轨道图
轨道高度分析图
轨道倾角分析图
轨道综合分析图
查看轨道综合分析图